DMSP 5D-2 F15 DEB

Satellite information

Favourite Embed

Satellite Type and Status

DEBRISIN ORBIT

Key statistics

Satellite DMSP 5D-2 F15 DEB at a glance.

Uptime

9340

Days in orbit

Revolutions

≈ 14.5

Per day

Orbit

SSO

Sun Synchronous Orbit

Inclination

98.3

Latest

Satellite identification and parameters

Extended collection of information and parameters for DMSP 5D-2 F15 DEB.

Object identification

Identified? True

Debris? True

Object name: DMSP 5D-2 F15 DEB

International designator: 1999-067C

Object number (NORAD): 25993

Object ID (CCSDS): 25993

Country: UNITED STATES OF AMERICA (US)

Current information (Y/N): Y

RCS size: SMALL

Orbital parameters

Period: 99.219 minutes

Inclination: 98.313 deg

SMA: 7099.419 km

Apoapsis: 722.662 km

Periapsis: 719.906 km

RAAN: 171.3757 deg

Eccentricy: 0.0001941

Argument of periapsis: 318.8703 deg

Mean anomaly: 167.1991 deg

Mean motion: 14.51337859 rev/day

Mean motion (dot): 0.00003306 rev/day2

B* drag term: 0.00084071 1/REarth

Two-line elements (TLE)

Creation date: July 6, 2025, 6:05 p.m.

Reference frame: TEME

Reference center: EARTH

Epoch: July 6, 2025, 12:20 p.m. UTC

TLE line 0: 0 DMSP 5D-2 F15 DEB

TLE line 1: 1 25993U 99067C 25187.51446715 .00003306 00000-0 84071-3 0 9990

TLE line 2: 2 25993 98.3130 171.3757 0001941 318.8703 167.1991 14.51337859333740

Live tracking on map

Real-time ground track for satellite DMSP 5D-2 F15 DEB.

In-orbit conjunctions

A list of the most updated potential collisions computed for object DMSP 5D-2 F15 DEB.

Target Orbit TCA Probability of collision Miss distance Type
SL-8 DEB LEO 2024-11-15 06:00:52 0.0001976353 952.0 (m) DEBRIS
NOAA 16 DEB SSO 2024-11-14 22:19:55 0.001335741 91.0 (m) DEBRIS
NOAA 16 DEB SSO 2024-09-30 14:13:46 0.0002660433 122.0 (m) DEBRIS
OPAL SSO 2024-09-26 02:14:48 0.0002185693 309.0 (m) PAYLOAD

Associated space launch

DMSP-5D3 (Defense Meteorological Satellite Program Block 5D3) is the eleventh and most recent version of the military meteorological satellites of the Defense Meteorological Satellite Program.

DMSP 5D-2 F15 DEB was lifted into orbit during the mission ‘Titan II SLV | DMSP F-15’, on board a Titan II SLV space rocket.

The launch took place on Dec. 12, 1999, 5:38 p.m. from Space Launch Complex 4W.

For more information about the launch, click the button.

Launch to space Titan II SLV | DMSP F-15
Titan II SLV | DMSP F-15

Agency: N/A

Status: Launch Successful

Launch date: Dec. 12, 1999, 5:38 p.m. UTC

Rocket: Titan II SLV

Launch pad: Space Launch Complex 4W

Location: Vandenberg SFB, CA, USA

...

Latest news about this satellite

There are no fresh news available about this satellite. Check back as we update our databases every day.


Newsletter sign-up

Weekly statistics, charts and insights to help you stay on top of the space industry.